[[{"header":{"parameterUnit":"m.s-1","parameterCategory":1,"la1":30.2991,"la2":30.254,"lo1":-89.0895,"lo2":-89.0444,"dy":0.0017,"dx":0.0017,"nx":28,"ny":28,"refTime":"2024-10-20T21:00:00:Z","depth":0,"parameterNumber":2,"parameterNumberName":"U-component_of_WINDS"},"data":[0,0,0,0,0,0,0,0,0,0,0,0,0,0,0,0,0,0,0,0,0,0,0,0,0,0,0,0,0,0,0,0,0,0,0,0,0,0,0,0,0,0,0,0,0,0,0,0,0,0,0,0,0,0,0,0,0,0,-1.0483,-1.0482,0,-1.0416,-1.0415,-1.0414,-1.0383,-1.0383,-1.0383,-1.0383,-1.0315,-1.0313,-1.0311,0,0,0,0,0,0,0,0,0,0,0,0,0,-1.0585,-1.0584,-1.0483,-1.0482,-1.0481,-1.0416,-1.0415,-1.0414,-1.0383,-1.0383,-1.0383,-1.0383,-1.0315,-1.0313,-1.0311,0,0,0,0,0,0,0,0,0,0,0,0,0,-1.0532,-1.0583,-1.0483,-1.0458,-1.0455,-1.0416,-1.0415,-1.0414,-1.0383,-1.0383,-1.0383,-1.0383,-1.0316,-1.0313,-1.031,-1.0291,0,0,-1.0302,-1.0301,0,0,0,0,0,0,0,0,-1.0535,-1.0528,-1.0462,-1.046,-1.0456,-1.0408,-1.0426,-1.0373,-1.0383,-1.041,-1.0383,-1.0384,-1.0346,-1.034,-1.0328,-1.0288,-1.0285,-1.0302,-1.03,-1.0299,-1.0298,0,0,0,0,0,0,0,-1.0539,-1.0531,-1.0456,-1.0462,-1.0458,-1.045,-1.0443,-1.0416,-1.0378,-1.0408,-1.0406,-1.0398,-1.0344,-1.033,-1.0326,-1.0284,-1.0302,-1.0299,-1.0297,-1.0296,-1.0227,-1.0227,0,0,0,0,0,0,-1.0546,-1.0534,-1.0458,-1.0454,-1.0497,-1.0449,-1.044,-1.0423,-1.0379,-1.0372,-1.0398,-1.0397,-1.0335,-1.0329,-1.0323,-1.0299,-1.0299,-1.0296,-1.0294,-1.0227,-1.0227,-1.0227,0,0,0,0,0,0,-1.0549,-1.054,-1.0461,-1.0493,-1.0483,-1.0447,-1.0428,-1.0422,-1.0408,-1.0371,-1.0364,-1.0391,-1.0335,-1.0327,-1.03,-1.0296,-1.0295,-1.0292,-1.0228,-1.0227,-1.0227,-1.0249,0,0,0,0,0,0,-1.0552,-1.0541,-1.0533,-1.0494,-1.0481,-1.0438,-1.0428,-1.0421,-1.0404,-1.0401,-1.0363,-1.0356,-1.0334,-1.0304,-1.0297,-1.0292,-1.029,-1.0228,-1.0227,-1.0227,-1.0249,-1.025,-1.0251,0,0,0,0,0,-1.0556,-1.0541,-1.0533,-1.0524,-1.047,-1.0438,-1.0431,-1.0406,-1.0403,-1.0395,-1.0372,-1.0358,-1.0298,-1.0302,-1.0293,-1.0287,-1.0228,-1.0227,-1.0227,-1.0248,-1.0249,-1.0251,0,0,0,0,0,0,-1.058,-1.0536,-1.0525,-1.0498,-1.0472,-1.0433,-1.0422,-1.0408,-1.0383,-1.0382,-1.0352,-1.0344,-1.0319,-1.03,-1.0306,-1.0267,-1.0262,-1.026,-1.028,-1.0281,-1.0282,-1.0287,-1.0288,0,0,0,0,0,-1.0583,-1.056,-1.0522,-1.0502,-1.049,-1.0458,-1.0443,-1.0427,-1.0399,-1.0387,-1.0362,-1.0335,-1.0311,-1.0295,-1.027,-1.0246,-1.0238,-1.0238,-1.0239,-1.024,-1.0239,-1.0226,-1.0226,-1.0226,-1.0226,-1.0226,0,0,-1.0587,-1.056,-1.0547,-1.0506,-1.0484,-1.0462,-1.0449,-1.0426,-1.0409,-1.0384,-1.0357,-1.0337,-1.0306,-1.0281,-1.0268,-1.0264,-1.0237,-1.024,-1.0241,-1.0239,-1.0226,-1.0226,-1.0226,-1.0226,-1.0226,-1.0226,0,0,-1.0584,-1.0561,-1.0542,-1.0521,-1.0488,-1.0467,-1.0463,-1.0426,-1.0413,-1.0385,-1.0366,-1.0346,-1.0304,-1.0283,-1.0267,-1.0258,-1.0245,-1.0251,-1.0256,-1.0244,-1.0244,-1.0244,-1.0242,-1.0241,-1.025,-1.025,-1.025,0,-1.0594,-1.0559,-1.0534,-1.0512,-1.0495,-1.0472,-1.0453,-1.0433,-1.0394,-1.0383,-1.038,-1.0327,-1.0305,-1.0275,-1.0273,-1.026,-1.0255,-1.0255,-1.0246,-1.0246,-1.0245,-1.0243,-1.0242,-1.0251,-1.0251,-1.025,-1.025,0,-1.0573,-1.055,-1.0539,-1.0502,-1.0484,-1.0464,-1.0436,-1.042,-1.0406,-1.0386,-1.0359,-1.0331,-1.0301,-1.0293,-1.0278,-1.0261,-1.026,-1.0252,-1.0245,-1.0247,-1.0244,-1.0243,-1.0252,-1.0252,-1.0251,-1.0251,0,0,-1.0582,-1.0534,-1.053,-1.0514,-1.0477,-1.0459,-1.0438,-1.0409,-1.0397,-1.0371,-1.0354,-1.032,-1.0312,-1.0294,-1.0277,-1.0266,-1.0263,-1.0259,-1.0258,-1.0261,-1.0244,-1.0251,-1.025,-1.0254,-1.0254,-1.0253,-1.0247,0,-1.0575,-1.0537,-1.0514,-1.0485,-1.0464,-1.0443,-1.0425,-1.0401,-1.0383,-1.0362,-1.0342,-1.0319,-1.031,-1.0299,-1.0288,-1.0266,-1.0259,-1.0266,-1.0238,-1.0237,-1.0246,-1.0248,-1.0255,-1.025,-1.0246,-1.0245,-1.0245,0,-1.056,-1.0536,-1.0505,-1.0472,-1.0463,-1.0447,-1.0419,-1.04,-1.0373,-1.036,-1.0341,-1.0324,-1.0303,-1.0299,-1.0269,-1.0274,-1.0262,-1.025,-1.0249,-1.0245,-1.0241,-1.0245,-1.0248,-1.0247,-1.0243,-1.0243,-1.0243,0,-1.0571,-1.053,-1.0507,-1.0494,-1.0455,-1.0445,-1.0428,-1.0401,-1.0386,-1.0362,-1.0352,-1.0326,-1.0311,-1.0292,-1.0269,-1.0268,-1.0242,-1.0236,-1.0232,-1.0232,-1.0227,-1.0228,-1.0228,-1.0219,-1.0219,-1.0219,-1.0219,0,-1.0565,-1.0547,-1.0512,-1.0498,-1.0478,-1.0452,-1.0434,-1.0415,-1.0392,-1.0374,-1.0354,-1.0338,-1.0309,-1.029,-1.0272,-1.0251,-1.0244,-1.0234,-1.0229,-1.0236,-1.0237,-1.0227,-1.0227,-1.0219,-1.0219,-1.0219,-1.0219,0,-1.0573,-1.0549,-1.0522,-1.0488,-1.0479,-1.0466,-1.0437,-1.0423,-1.0404,-1.0382,-1.0375,-1.0346,-1.0322,-1.0298,-1.0266,-1.0254,-1.0234,-1.0227,-1.0243,-1.024,-1.0238,-1.0239,-1.0232,-1.023,-1.0222,-1.0222,-1.0222,0,-1.057,-1.0556,-1.0521,-1.0508,-1.0492,-1.0471,-1.0456,-1.0431,-1.0416,-1.0385,-1.0375,-1.035,-1.0329,-1.0292,-1.0268,-1.0244,-1.0237,-1.0236,-1.0233,-1.0241,-1.0238,-1.0239,-1.0238,-1.0237,-1.0238,-1.0238,-1.0238,0,-1.0569,-1.0558,-1.0536,-1.0511,-1.0494,-1.0472,-1.045,-1.0441,-1.0412,-1.0396,-1.0372,-1.0356,-1.0324,-1.03,-1.0273,-1.0256,-1.0243,-1.0239,-1.0237,-1.0244,-1.0254,-1.0249,-1.0246,-1.0239,-1.0239,-1.0239,-1.0239,-1.0239,-1.0572,-1.0559,-1.0533,-1.051,-1.0491,-1.0472,-1.0457,-1.0437,-1.0417,-1.0389,-1.0376,-1.0352,-1.0327,-1.029,-1.0274,-1.0255,-1.0251,-1.0248,-1.0247,-1.0247,-1.0249,-1.0257,-1.025,-1.025,-1.025,-1.025,-1.025,0,-1.057,-1.0553,-1.0532,-1.0502,-1.0485,-1.0474,-1.045,-1.0436,-1.0415,-1.0393,-1.0373,-1.0346,-1.0323,-1.0298,-1.0274,-1.0264,-1.0257,-1.0259,-1.0259,-1.0256,-1.0253,-1.0258,-1.0265,-1.0265,-1.0265,-1.0265,-1.0265,-1.0265,-1.0567,-1.0545,-1.0532,-1.0501,-1.0483,-1.046,-1.0447,-1.043,-1.0412,-1.0383,-1.0364,-1.0348,-1.0325,-1.03,-1.0279,-1.0272,-1.0264,-1.0267,-1.0259,-1.0257,-1.0256,-1.0255,-1.0259,-1.0266,-1.0266,-1.0263,-1.0263,-1.0263]},{"header":{"parameterUnit":"m.s-1","parameterCategory":1,"la1":30.2991,"la2":30.254,"lo1":-89.0895,"lo2":-89.0444,"dy":0.0017,"dx":0.0017,"nx":28,"ny":28,"refTime":"2024-10-20T21:00:00:Z","depth":0,"parameterNumber":3,"parameterNumberName":"V-component_of_WINDS"},"data":[0,0,0,0,0,0,0,0,0,0,0,0,0,0,0,0,0,0,0,0,0,0,0,0,0,0,0,0,0,0,0,0,0,0,0,0,0,0,0,0,0,0,0,0,0,0,0,0,0,0,0,0,0,0,0,0,0,0,-0.6745,-0.6745,0,-0.6749,-0.6749,-0.6749,-0.6799,-0.68,-0.6801,-0.6803,-0.6806,-0.6805,-0.6804,0,0,0,0,0,0,0,0,0,0,0,0,0,-0.6782,-0.6781,-0.6745,-0.6745,-0.6745,-0.6749,-0.6749,-0.6749,-0.6799,-0.68,-0.6802,-0.6803,-0.6807,-0.6805,-0.6804,0,0,0,0,0,0,0,0,0,0,0,0,0,-0.6774,-0.6781,-0.6745,-0.677,-0.6773,-0.6749,-0.6749,-0.6749,-0.6798,-0.68,-0.6802,-0.6804,-0.6807,-0.6806,-0.6804,-0.6756,0,0,-0.6799,-0.6798,0,0,0,0,0,0,0,0,-0.6774,-0.6773,-0.6766,-0.6768,-0.6771,-0.6775,-0.6763,-0.6751,-0.6798,-0.6788,-0.6803,-0.6805,-0.6794,-0.6794,-0.6791,-0.6756,-0.6756,-0.6799,-0.6798,-0.6797,-0.6797,0,0,0,0,0,0,0,-0.6775,-0.6773,-0.6746,-0.6766,-0.6769,-0.6782,-0.6783,-0.6761,-0.6781,-0.6789,-0.6793,-0.6793,-0.6796,-0.6792,-0.6791,-0.6756,-0.6799,-0.6798,-0.6797,-0.6796,-0.6688,-0.6686,0,0,0,0,0,0,-0.6772,-0.6773,-0.6746,-0.6746,-0.6777,-0.678,-0.6781,-0.6772,-0.6781,-0.6784,-0.6791,-0.6795,-0.6794,-0.6793,-0.6791,-0.6739,-0.6797,-0.6796,-0.6795,-0.6689,-0.6687,-0.6685,0,0,0,0,0,0,-0.6772,-0.6769,-0.6746,-0.6761,-0.6759,-0.6777,-0.6767,-0.6771,-0.6767,-0.6783,-0.6786,-0.6783,-0.6795,-0.6794,-0.6766,-0.674,-0.6795,-0.6794,-0.6692,-0.6689,-0.6686,-0.6633,0,0,0,0,0,0,-0.6773,-0.6769,-0.675,-0.676,-0.6758,-0.6719,-0.6765,-0.677,-0.6764,-0.6769,-0.6776,-0.6779,-0.6797,-0.6768,-0.6764,-0.6739,-0.6792,-0.6694,-0.669,-0.6687,-0.6637,-0.6628,-0.6621,0,0,0,0,0,-0.6775,-0.6734,-0.6749,-0.6746,-0.6735,-0.6718,-0.6717,-0.6738,-0.6762,-0.6744,-0.6755,-0.6779,-0.6743,-0.6764,-0.676,-0.6735,-0.6696,-0.6691,-0.6687,-0.664,-0.663,-0.6621,0,0,0,0,0,0,-0.672,-0.6736,-0.6753,-0.6714,-0.6714,-0.6726,-0.6704,-0.6725,-0.6719,-0.6724,-0.675,-0.6751,-0.672,-0.6724,-0.6748,-0.6691,-0.6724,-0.6719,-0.669,-0.668,-0.6672,-0.6673,-0.6791,0,0,0,0,0,-0.6704,-0.6688,-0.6703,-0.6667,-0.6667,-0.6685,-0.6678,-0.6695,-0.6696,-0.6697,-0.6705,-0.6705,-0.6695,-0.6687,-0.6678,-0.6637,-0.6641,-0.6618,-0.661,-0.6603,-0.6599,-0.6582,-0.6573,-0.6671,-0.6671,-0.6671,0,0,-0.6669,-0.6676,-0.6664,-0.6657,-0.6659,-0.6644,-0.6685,-0.6666,-0.6656,-0.6694,-0.6669,-0.6675,-0.6677,-0.6644,-0.663,-0.6647,-0.6573,-0.6598,-0.6592,-0.6592,-0.6577,-0.6567,-0.6559,-0.6668,-0.6669,-0.6669,0,0,-0.66,-0.6602,-0.6575,-0.6577,-0.658,-0.6593,-0.6587,-0.6596,-0.6602,-0.6577,-0.6607,-0.6595,-0.6574,-0.6577,-0.6575,-0.6509,-0.6533,-0.6505,-0.6465,-0.6448,-0.644,-0.6433,-0.6413,-0.6405,-0.65,-0.65,-0.65,0,-0.6557,-0.6535,-0.6558,-0.6538,-0.6535,-0.657,-0.6544,-0.6544,-0.6544,-0.6542,-0.6561,-0.6539,-0.6543,-0.6512,-0.6496,-0.6492,-0.6488,-0.6505,-0.6439,-0.6433,-0.6427,-0.6408,-0.64,-0.6497,-0.6497,-0.6498,-0.6498,0,-0.6484,-0.6469,-0.6446,-0.6447,-0.6441,-0.6418,-0.6439,-0.643,-0.6447,-0.6459,-0.6435,-0.6441,-0.6435,-0.6429,-0.6444,-0.6401,-0.6412,-0.6434,-0.6469,-0.6414,-0.6397,-0.639,-0.6493,-0.6494,-0.6495,-0.6495,0,0,-0.6381,-0.6396,-0.6388,-0.639,-0.6398,-0.6386,-0.6366,-0.6361,-0.6355,-0.6353,-0.6339,-0.6322,-0.6344,-0.6342,-0.6359,-0.6343,-0.6296,-0.6368,-0.6369,-0.6357,-0.6253,-0.6238,-0.6229,-0.631,-0.6309,-0.6308,-0.6254,0,-0.6317,-0.6283,-0.6305,-0.6268,-0.6256,-0.6289,-0.6272,-0.6275,-0.6286,-0.6278,-0.6289,-0.6279,-0.6306,-0.6306,-0.6292,-0.6304,-0.6275,-0.6308,-0.6299,-0.6299,-0.6301,-0.622,-0.6203,-0.6152,-0.6247,-0.6246,-0.6245,0,-0.6238,-0.6235,-0.6198,-0.6211,-0.6207,-0.6191,-0.619,-0.6181,-0.6186,-0.6195,-0.6194,-0.6216,-0.6198,-0.623,-0.6209,-0.623,-0.6228,-0.6234,-0.6232,-0.6234,-0.627,-0.6223,-0.6136,-0.6129,-0.6234,-0.6235,-0.6235,0,-0.6171,-0.6158,-0.6135,-0.6135,-0.6149,-0.6138,-0.6143,-0.615,-0.6147,-0.6146,-0.6145,-0.6141,-0.614,-0.6137,-0.6158,-0.6179,-0.6135,-0.6167,-0.6144,-0.6143,-0.6135,-0.6136,-0.6049,-0.6128,-0.6128,-0.6128,-0.6128,0,-0.6099,-0.6076,-0.6106,-0.6092,-0.6068,-0.6092,-0.6068,-0.6077,-0.6083,-0.6073,-0.6101,-0.609,-0.6117,-0.611,-0.6125,-0.6107,-0.6105,-0.6114,-0.6119,-0.6113,-0.6112,-0.6114,-0.6119,-0.6126,-0.6127,-0.6127,-0.6127,0,-0.6021,-0.6039,-0.6017,-0.6033,-0.6036,-0.6018,-0.6032,-0.6021,-0.6033,-0.602,-0.6018,-0.6039,-0.6032,-0.6052,-0.6048,-0.6059,-0.6033,-0.6042,-0.6032,-0.6036,-0.6012,-0.6016,-0.5926,-0.5917,-0.5998,-0.5998,-0.5997,0,-0.5975,-0.5958,-0.5973,-0.5968,-0.5972,-0.5964,-0.5962,-0.5986,-0.5982,-0.5989,-0.5977,-0.5973,-0.5972,-0.596,-0.5975,-0.5973,-0.5985,-0.5953,-0.5984,-0.598,-0.5988,-0.599,-0.599,-0.5948,-0.5947,-0.5946,-0.5945,0,-0.5893,-0.5904,-0.59,-0.5899,-0.5896,-0.5897,-0.5899,-0.5894,-0.592,-0.5915,-0.5909,-0.5908,-0.5905,-0.5902,-0.5904,-0.591,-0.5933,-0.5935,-0.593,-0.5925,-0.5921,-0.5927,-0.6018,-0.5937,-0.5938,-0.5939,-0.5939,-0.5939,-0.5832,-0.5821,-0.583,-0.5825,-0.583,-0.5832,-0.5824,-0.5836,-0.5832,-0.5832,-0.5847,-0.5839,-0.5847,-0.5852,-0.5857,-0.5852,-0.5867,-0.5858,-0.5857,-0.5855,-0.5853,-0.592,-0.5852,-0.5852,-0.5852,-0.5852,-0.5853,0,-0.5755,-0.5764,-0.5759,-0.5763,-0.5759,-0.5781,-0.5785,-0.5781,-0.5774,-0.578,-0.5779,-0.5774,-0.5771,-0.5787,-0.5787,-0.578,-0.5791,-0.578,-0.5782,-0.5784,-0.5838,-0.5844,-0.5772,-0.5772,-0.5772,-0.5772,-0.5772,-0.5772,-0.5715,-0.5698,-0.571,-0.5696,-0.5704,-0.5697,-0.5699,-0.5702,-0.5708,-0.5701,-0.57,-0.571,-0.572,-0.5722,-0.5721,-0.5726,-0.5726,-0.5712,-0.5721,-0.5772,-0.578,-0.5787,-0.5793,-0.5711,-0.5711,-0.5668,-0.5667,-0.5667]}]]